DW3263 Weather Reports


Display with metric or nautical units.
time (UTC)temp
F
wind
direction
speed
MPH
gust
MPH
rain 1hr
in
rain 24hr
in
rain mn
in
humidity
%
barometer
mb
20260502130521 46 270 3.0 6.0 0.00 0.01 0.00 49 1013.0
20260502123521 45 315 3.0 9.0 0.00 0.01 0.00 19 1013.0
20260502122731 44 248 3.0 8.0 0.00 0.01 0.00 14 1013.1
20260502121520 44 270 3.0 7.0 0.00 0.01 0.00 100 1013.1
20260502120520 44 270 2.0 4.0 0.00 0.01 0.00 100 1013.0
20260502115520 43 0.0 2.0 0.00 0.01 0.00 100 1013.0
20260502113520 43 315 1.0 3.0 0.00 0.01 0.00 100 1012.8
20260502112520 42 315 1.0 3.0 0.00 0.01 0.00 100 1012.8
20260502111520 41 315 2.0 5.0 0.00 0.01 0.00 100 1012.8
20260502110521 41 0.0 0.0 0.00 0.01 0.00 100 1012.6
20260502105520 41 0.0 0.0 0.00 0.01 0.00 100 1012.6
20260502104520 41 315 1.0 3.0 0.00 0.01 0.00 100 1012.7
20260502103520 41 315 1.0 4.0 0.00 0.01 0.00 100 1012.6
20260502102520 41 315 3.0 5.0 0.00 0.01 0.00 100 1012.5
20260502101520 41 315 2.0 3.0 0.00 0.01 0.00 100 1012.5
20260502100518 42 315 1.0 2.0 0.00 0.01 0.00 100 1012.5
20260502091518 44 315 4.0 9.0 0.00 0.01 0.00 100 1012.2
20260502090521 44 338 3.0 9.0 0.00 0.01 0.00 100 1012.1
20260502071520 44 338 3.0 5.0 0.00 0.01 0.00 100 1011.0
20260502070731 44 0.0 0.0 0.00 0.01 0.00 100 1010.9
20260502065519 44 0.0 0.0 0.00 0.01 0.00 100 1010.8
20260502064521 45 0.0 1.0 0.00 0.01 0.00 100 1010.7
20260502063734 45 0.0 1.0 0.00 0.01 0.00 100 1010.8
20260502062518 46 0.0 2.0 0.00 0.01 0.00 100 1011.0
20260502061518 47 0.0 0.0 0.00 0.01 0.00 100 1011.1
20260502060732 47 338 1.0 3.0 0.00 0.01 0.00 100 1011.1
20260502055518 47 338 1.0 3.0 0.00 0.01 0.00 100 1011.1
20260502054519 47 0.0 2.0 0.00 0.01 0.00 100 1011.0
20260502053521 48 0.0 0.0 0.00 0.01 0.00 100 1010.9
20260502052519 48 0.0 2.0 0.00 0.01 0.00 100 1010.9
20260502051520 48 0.0 0.0 0.00 0.01 0.00 100 1010.9
20260502050520 48 0.0 0.0 0.00 0.01 0.00 100 1011.0
20260502045518 48 0.0 0.0 0.00 0.01 0.00 100 1011.1
20260502044519 48 0.0 0.0 0.00 0.01 0.00 100 1011.2
20260502043520 49 0.0 0.0 0.00 0.02 0.00 100 1011.4
20260502042944 49 0.0 0.0 0.00 0.02 0.00 100 1011.2
20260502041518 49 0.0 0.0 0.00 0.02 0.00 100 1010.9
20260502040519 49 0.0 2.0 0.00 0.02 0.00 100 1010.9
20260502035729 49 0.0 1.0 0.00 0.02 0.02 100 1010.9
20260502034519 49 0.0 2.0 0.00 0.02 0.02 100 1010.8
20260502034157 50 0.0 0.0 0.00 0.02 0.02 100 1010.7
20260502032520 50 0.0 0.0 0.00 0.02 0.02 100 1011.0
20260502031520 50 0.0 3.0 0.00 0.02 0.02 100 1011.3
20260502030520 50 338 1.0 4.0 0.00 0.02 0.02 100 1011.4
20260502025520 50 338 2.0 3.0 0.00 0.02 0.02 100 1011.3
20260502024520 50 338 1.0 3.0 0.00 0.02 0.02 100 1011.1
20260502023732 51 0.0 0.0 0.00 0.02 0.02 100 1011.0
20260502022520 51 0.0 0.0 0.00 0.02 0.02 100 1011.1
20260502021519 51 0.0 3.0 0.00 0.02 0.02 100 1010.9
20260502020520 51 0.0 3.0 0.00 0.02 0.02 100 1010.8
20260502015520 51 0.0 0.0 0.00 0.02 0.02 100 1011.0
20260502014520 51 338 1.0 2.0 0.00 0.02 0.02 100 1010.9
20260502013520 51 338 1.0 4.0 0.00 0.02 0.02 100 1010.7
20260502012520 51 338 1.0 3.0 0.00 0.02 0.02 100 1010.4
20260502011520 51 0.0 2.0 0.00 0.02 0.02 100 1010.2
20260502010520 51 0.0 0.0 0.00 0.02 0.02 100 1010.0
20260502005520 51 338 2.0 5.0 0.00 0.02 0.02 100 1009.7
20260502004520 51 338 1.0 3.0 0.00 0.02 0.02 100 1009.7
20260502003520 51 0.0 1.0 0.00 0.02 0.02 100 1009.3
20260502002520 51 338 1.0 3.0 0.00 0.02 0.02 100 1009.2
20260502001520 52 0.0 0.0 0.00 0.02 0.02 100 1009.0
20260502000520 53 0.0 0.0 0.00 0.02 0.02 100 1008.9
20260501235731 53 0.0 0.0 0.00 0.02 0.02 100 1008.9
20260501234520 53 0.0 0.0 0.00 0.02 0.02 100 1009.0
20260501233520 54 0.0 0.0 0.00 0.02 0.02 100 1009.0
20260501232520 54 0.0 0.0 0.00 0.02 0.02 100 1008.9
20260501231520 54 338 1.0 3.0 0.00 0.02 0.02 28 1008.9
20260501230520 54 0.0 0.0 0.00 0.02 0.02 18 1008.9
20260501225520 54 0.0 1.0 0.00 0.02 0.02 41 1009.0
20260501224520 55 338 1.0 3.0 0.00 0.02 0.02 51 1009.0
20260501223520 55 338 1.0 2.0 0.00 0.02 0.02 60 1009.3
20260501222520 55 338 2.0 5.0 0.00 0.02 0.02 63 1009.3
20260501221520 56 338 5.0 12.0 0.00 0.02 0.02 63 1009.5
20260501220520 57 315 6.0 11.0 0.00 0.02 0.02 60 1009.1
20260501215520 60 180 3.0 6.0 0.00 0.03 0.02 52 1008.8
20260501214520 60 180 2.0 5.0 0.00 0.03 0.02 50 1008.5
20260501213520 60 180 2.0 4.0 0.00 0.03 0.02 51 1008.4
20260501212520 61 180 2.0 4.0 0.00 0.03 0.02 52 1008.3
20260501211520 61 180 3.0 7.0 0.00 0.03 0.02 50 1008.4
20260501210520 61 180 3.0 7.0 0.00 0.03 0.02 49 1008.2
20260501205734 61 203 3.0 6.0 0.00 0.03 0.02 50 1008.1
20260501204518 61 203 3.0 7.0 0.00 0.03 0.02 48 1008.3
20260501203520 62 203 5.0 9.0 0.00 0.03 0.02 46 1008.3
20260501202520 62 248 3.0 6.0 0.00 0.03 0.02 48 1008.3
20260501201520 62 203 3.0 6.0 0.00 0.03 0.02 47 1008.5
20260501200520 62 203 5.0 10.0 0.00 0.03 0.02 46 1008.6
20260501195520 61 180 1.0 7.0 0.00 0.04 0.02 49 1008.5
20260501194520 61 225 3.0 9.0 0.00 0.04 0.02 47 1008.6
20260501193520 61 135 4.0 9.0 0.00 0.04 0.02 48 1008.8
20260501192520 61 203 4.0 7.0 0.00 0.04 0.02 47 1009.0
20260501191520 62 225 5.0 10.0 0.00 0.04 0.02 46 1009.3
20260501190519 62 225 5.0 9.0 0.00 0.04 0.02 46 1009.4
20260501185521 62 158 4.0 10.0 0.00 0.04 0.02 47 1009.4
20260501184520 62 135 5.0 13.0 0.00 0.04 0.02 46 1009.6
20260501183520 62 158 5.0 14.0 0.00 0.04 0.02 48 1009.8
20260501182521 61 225 5.0 11.0 0.00 0.04 0.02 48 1009.7
20260501181520 61 180 6.0 13.0 0.00 0.04 0.02 46 1009.9
20260501180520 61 248 2.0 7.0 0.00 0.05 0.02 49 1010.0
20260501175519 60 248 4.0 8.0 0.00 0.05 0.02 48 1010.1
20260501174520 60 158 4.0 12.0 0.00 0.05 0.02 53 1010.1
20260501173520 59 203 3.0 6.0 0.00 0.05 0.02 50 1010.2
20260501172519 59 225 3.0 10.0 0.00 0.06 0.02 55 1010.4
20260501171520 58 90 4.0 13.0 0.00 0.06 0.02 58 1010.5
20260501170519 58 203 4.0 11.0 0.00 0.06 0.02 53 1010.8
20260501165521 58 113 2.0 7.0 0.00 0.06 0.02 53 1010.8
20260501164945 58 113 5.0 8.0 0.00 0.06 0.02 53 1011.0
20260501163518 58 225 4.0 8.0 0.00 0.06 0.02 52 1011.1
20260501162729 57 293 3.0 8.0 0.00 0.07 0.02 49 1011.3
20260501161521 57 180 4.0 7.0 0.00 0.07 0.02 51 1011.3
20260501160521 57 225 3.0 8.0 0.00 0.07 0.02 49 1011.5
20260501155945 56 315 4.0 9.0 0.00 0.07 0.02 48 1011.6
20260501154518 56 248 3.0 7.0 0.00 0.07 0.02 49 1011.9
20260501153520 55 225 2.0 5.0 0.00 0.08 0.02 50 1011.9
20260501152519 55 293 3.0 8.0 0.00 0.08 0.02 50 1012.0
20260501151518 55 248 4.0 9.0 0.01 0.08 0.02 50 1012.0
20260501150520 55 158 4.0 9.0 0.01 0.08 0.02 52 1012.2
20260501145732 54 270 2.0 6.0 0.01 0.09 0.02 57 1012.2
20260501144518 54 293 4.0 9.0 0.01 0.09 0.02 53 1012.1
20260501143519 54 248 4.0 7.0 0.01 0.09 0.02 52 1012.2
20260501142520 54 248 3.0 7.0 0.01 0.09 0.02 57 1012.2
20260501141518 53 270 3.0 6.0 0.00 0.09 0.01 59 1012.3
20260501140518 52 270 2.0 4.0 0.00 0.09 0.01 60 1012.3